User: anonymous   Login
Location: Unspecified
(0.0000°N, 0.0000°E)
Time: 13:38:57
(UTC+00:00)
Language:

BEESAT 3 - Orbit

View from above orbital plane
View from above orbital plane
View from above satellite
View from above satellite

Ground track
Ground track

The orbit data is extracted from the following two-line orbital elements,

1 39134U 13015E   19235.93449310 +.00000560 +00000-0 +34858-4 0  9996
2 39134 064.8635 165.8070 0034499 292.8883 066.8604 15.20262849350287
Epoch (UTC): 23 August 2019 22:25:40
Eccentricity: 0.0034499
inclination: 64.8635°
perigee height: 481 km
apogee height: 529 km
right ascension of ascending node: 165.8070°
argument of perigee: 292.8883°
revolutions per day: 15.20262849
mean anomaly at epoch: 66.8604°
orbit number at epoch: 35028

The dashed part of the orbit path shows where the satellite is in the earth's shadow,  

DLR